Hourly Weather Dzierzgonka

Today, 16 May, Sunday

Time Temperature Precipitation Wind Pressure Humidity
00:00 +10°C° 0 mm 2 mps 755 mmHg 88%
01:00 +10°C° 0 mm 2 mps 755 mmHg 87%
02:00 +10°C° 0.1 mm 2 mps 755 mmHg 86%
03:00 +10°C° 0.1 mm 2 mps 754 mmHg 85%
04:00 +10°C° 0.1 mm 2 mps 754 mmHg 84%
05:00 +11°C° 0.1 mm 3 mps 754 mmHg 84%
06:00 +11°C° 0.1 mm 3 mps 754 mmHg 84%
07:00 +12°C° 0.1 mm 3 mps 754 mmHg 85%
08:00 +13°C° 0.2 mm 3 mps 754 mmHg 85%
09:00 +13°C° 0.2 mm 3 mps 754 mmHg 85%
10:00 +14°C° 0.2 mm 3 mps 754 mmHg 85%
11:00 +14°C° 0.4 mm 3 mps 753 mmHg 83%
12:00 +16°C° 0.4 mm 3 mps 753 mmHg 81%
13:00 +17°C° 0.4 mm 3 mps 753 mmHg 78%
14:00 +17°C° 0.5 mm 3 mps 753 mmHg 79%
15:00 +17°C° 0.5 mm 2 mps 752 mmHg 80%
16:00 +17°C° 0.5 mm 2 mps 752 mmHg 81%
17:00 +16°C° 0.6 mm 2 mps 752 mmHg 83%
18:00 +15°C° 0.6 mm 2 mps 752 mmHg 86%
19:00 +14°C° 0.6 mm 2 mps 752 mmHg 89%
20:00 +13°C° 0 mm 2 mps 752 mmHg 90%
21:00 +12°C° 0 mm 2 mps 752 mmHg 91%
22:00 +12°C° 0 mm 2 mps 753 mmHg 93%
23:00 +10°C° 0 mm 2 mps 753 mmHg 93%

Tomorrow, 17 May, Monday

Time Temperature Precipitation Wind Pressure Humidity
00:00 +10°C° 0 mm 2 mps 753 mmHg 94%
01:00 +9°C° 0 mm 3 mps 753 mmHg 94%
02:00 +9°C° 0 mm 2 mps 753 mmHg 94%
03:00 +8°C° 0 mm 2 mps 753 mmHg 94%
04:00 +8°C° 0 mm 2 mps 753 mmHg 94%
05:00 +9°C° 0 mm 2 mps 754 mmHg 91%
06:00 +12°C° 0 mm 2 mps 754 mmHg 87%
07:00 +14°C° 0 mm 2 mps 754 mmHg 83%
08:00 +14°C° 0 mm 3 mps 754 mmHg 77%
09:00 +17°C° 0 mm 3 mps 754 mmHg 70%
10:00 +18°C° 0 mm 3 mps 754 mmHg 64%
11:00 +19°C° 0.2 mm 3 mps 754 mmHg 62%
12:00 +19°C° 0.2 mm 3 mps 753 mmHg 60%
13:00 +20°C° 0.2 mm 3 mps 753 mmHg 59%
14:00 +18°C° 0.4 mm 3 mps 753 mmHg 66%
15:00 +17°C° 0.4 mm 3 mps 753 mmHg 73%
16:00 +15°C° 0.4 mm 4 mps 753 mmHg 80%
17:00 +14°C° 1.2 mm 4 mps 754 mmHg 86%
18:00 +12°C° 1.2 mm 4 mps 754 mmHg 91%
19:00 +11°C° 1.2 mm 4 mps 754 mmHg 96%
20:00 +11°C° 0.3 mm 4 mps 754 mmHg 97%
21:00 +10°C° 0.3 mm 3 mps 753 mmHg 97%
22:00 +10°C° 0.3 mm 2 mps 753 mmHg 97%
23:00 +10°C° 0.6 mm 2 mps 753 mmHg 98%

Day after tomorrow, 18 May, Tuesday

Time Temperature Precipitation Wind Pressure Humidity
00:00 +10°C° 0.6 mm 2 mps 753 mmHg 98%
01:00 +10°C° 0.6 mm 3 mps 753 mmHg 99%
02:00 +10°C° 0.7 mm 3 mps 753 mmHg 98%
03:00 +10°C° 0.7 mm 3 mps 753 mmHg 98%
04:00 +10°C° 0.7 mm 3 mps 753 mmHg 98%
05:00 +10°C° 0.9 mm 3 mps 753 mmHg 98%
06:00 +10°C° 0.9 mm 4 mps 753 mmHg 98%
07:00 +10°C° 0.9 mm 4 mps 753 mmHg 97%
08:00 +10°C° 0.6 mm 4 mps 753 mmHg 97%
09:00 +10°C° 0.6 mm 4 mps 753 mmHg 97%
10:00 +11°C° 0.6 mm 4 mps 753 mmHg 96%
11:00 +11°C° 0.3 mm 4 mps 754 mmHg 92%
12:00 +12°C° 0.3 mm 5 mps 754 mmHg 89%
13:00 +13°C° 0.3 mm 5 mps 754 mmHg 85%
14:00 +13°C° 0.1 mm 4 mps 754 mmHg 84%
15:00 +13°C° 0.1 mm 4 mps 754 mmHg 82%
16:00 +13°C° 0.1 mm 3 mps 755 mmHg 81%
17:00 +12°C° 0.1 mm 3 mps 755 mmHg 85%
18:00 +12°C° 0.1 mm 2 mps 755 mmHg 88%
19:00 +12°C° 0.1 mm 2 mps 755 mmHg 92%
20:00 +11°C° 0 mm 1 mps 756 mmHg 92%
21:00 +11°C° 0 mm 1 mps 756 mmHg 93%
22:00 +11°C° 0 mm 1 mps 756 mmHg 93%
23:00 +9°C° 0 mm 2 mps 756 mmHg 94%

19 May, Wednesday

Time Temperature Precipitation Wind Pressure Humidity
00:00 +8°C° 0 mm 2 mps 757 mmHg 94%
01:00 +7°C° 0 mm 2 mps 757 mmHg 95%
02:00 +7°C° 0 mm 2 mps 757 mmHg 95%
03:00 +7°C° 0 mm 3 mps 757 mmHg 95%
04:00 +5°C° 0 mm 3 mps 757 mmHg 94%
05:00 +8°C° 0 mm 3 mps 757 mmHg 90%
06:00 +10°C° 0 mm 3 mps 758 mmHg 86%
07:00 +11°C° 0 mm 4 mps 758 mmHg 82%
08:00 +12°C° 0 mm 4 mps 758 mmHg 76%
09:00 +14°C° 0 mm 4 mps 758 mmHg 71%
10:00 +15°C° 0 mm 5 mps 758 mmHg 65%
11:00 +15°C° 0 mm 5 mps 758 mmHg 66%
12:00 +14°C° 0 mm 5 mps 758 mmHg 66%
13:00 +14°C° 0 mm 5 mps 758 mmHg 67%
14:00 +14°C° 0 mm 5 mps 758 mmHg 67%
15:00 +14°C° 0 mm 5 mps 758 mmHg 67%
16:00 +13°C° 0 mm 5 mps 759 mmHg 67%
17:00 +12°C° 0 mm 4 mps 759 mmHg 72%
18:00 +11°C° 0 mm 3 mps 759 mmHg 76%
19:00 +10°C° 0 mm 3 mps 759 mmHg 81%
20:00 +9°C° 0 mm 3 mps 759 mmHg 84%
21:00 +7°C° 0 mm 3 mps 759 mmHg 86%
22:00 +5°C° 0 mm 3 mps 759 mmHg 88%
23:00 +5°C° 0 mm 3 mps 759 mmHg 90%

20 May, Thursday

Time Temperature Precipitation Wind Pressure Humidity
00:00 +5°C° 0 mm 3 mps 759 mmHg 92%
01:00 +4°C° 0 mm 3 mps 759 mmHg 94%
02:00 +4°C° 0 mm 3 mps 759 mmHg 94%
03:00 +4°C° 0 mm 3 mps 759 mmHg 95%
04:00 +4°C° 0 mm 3 mps 759 mmHg 95%
05:00 +6°C° 0 mm 4 mps 759 mmHg 89%
06:00 +8°C° 0 mm 4 mps 760 mmHg 84%
07:00 +10°C° 0 mm 5 mps 760 mmHg 78%
08:00 +12°C° 0.1 mm 4 mps 760 mmHg 73%
09:00 +13°C° 0.1 mm 4 mps 760 mmHg 69%
10:00 +15°C° 0.1 mm 4 mps 760 mmHg 64%
11:00 +15°C° 0.2 mm 4 mps 760 mmHg 64%
12:00 +15°C° 0.2 mm 4 mps 760 mmHg 63%
13:00 +15°C° 0.2 mm 4 mps 760 mmHg 63%
14:00 +14°C° 0.3 mm 4 mps 760 mmHg 66%
15:00 +14°C° 0.3 mm 4 mps 760 mmHg 68%
16:00 +14°C° 0.3 mm 4 mps 760 mmHg 71%
17:00 +12°C° 0.1 mm 3 mps 760 mmHg 76%
18:00 +12°C° 0.1 mm 2 mps 760 mmHg 80%
19:00 +11°C° 0.1 mm 1 mps 760 mmHg 85%
20:00 +9°C° 0 mm 2 mps 760 mmHg 86%
21:00 +8°C° 0 mm 2 mps 760 mmHg 88%
22:00 +7°C° 0 mm 2 mps 760 mmHg 89%
23:00 +7°C° 0 mm 2 mps 760 mmHg 90%

21 May, Friday

Time Temperature Precipitation Wind Pressure Humidity
00:00 +6°C° 0 mm 2 mps 760 mmHg 92%
01:00 +5°C° 0 mm 3 mps 760 mmHg 93%
02:00 +5°C° 0 mm 3 mps 760 mmHg 93%
03:00 +5°C° 0 mm 3 mps 760 mmHg 94%
04:00 +5°C° 0 mm 3 mps 760 mmHg 94%
05:00 +7°C° 0 mm 3 mps 760 mmHg 87%
06:00 +7°C° 0 mm 4 mps 760 mmHg 80%
07:00 +8°C° 0 mm 4 mps 760 mmHg 73%
08:00 +10°C° 0 mm 5 mps 760 mmHg 68%
09:00 +12°C° 0 mm 5 mps 760 mmHg 62%
10:00 +13°C° 0 mm 5 mps 759 mmHg 56%
11:00 +14°C° 0 mm 5 mps 759 mmHg 55%
12:00 +14°C° 0 mm 4 mps 759 mmHg 54%
13:00 +15°C° 0 mm 4 mps 758 mmHg 53%
14:00 +15°C° 0.1 mm 4 mps 758 mmHg 59%
15:00 +14°C° 0.1 mm 4 mps 758 mmHg 65%
16:00 +14°C° 0.1 mm 4 mps 758 mmHg 70%
17:00 +13°C° 0.1 mm 4 mps 757 mmHg 75%
18:00 +12°C° 0.1 mm 4 mps 757 mmHg 80%
19:00 +12°C° 0.1 mm 4 mps 757 mmHg 85%
20:00 +11°C° 0 mm 4 mps 757 mmHg 86%
21:00 +11°C° 0 mm 4 mps 757 mmHg 87%
22:00 +10°C° 0 mm 4 mps 756 mmHg 87%
23:00 +10°C° 0 mm 4 mps 756 mmHg 86%
Show more

We Need Your Consent

Meteoprog and our Service Providers may store and access personal data such as cookies, device identifiers or other similar technologies on your device and process such data to personalise content and ads, as well as provide social media features and to analyse the traffic.

  • Store and/or access information on your device

    Cookies, device identifiers or other information can be stored or accessed on your device for the purposes indicated above.

  • Personalised ads and content, ad and content measurement, audience insights, and products development

    Ads and content can be personalised based on a profile. More data can be added to better personalise ads and content. Ad and content performance can be measured. Insights about the audience who saw the ads and content can be derived. Such data can be used to develop or improve user’s experience, systems and software.

By clicking ‘I Agree’ you will allow the use of indicated cookies, device identifiers, web beacons or other similar technologies. Your settings can be changed in the browser on your device.

For certain purposes, legitimate interests may be relied on, rather than consent. You can read more about this in our Privacy and Cookie Policy.